2023-077B

Last updated on Fri Jun 02 2023 00:02:04 GMT+0000 (Coordinated Universal Time)

1 56762U 23077B 23151.72002808 .08997290 69550-5 56789-2 0 9995 2 56762 41.5561 255.5315 0190506 148.7351 343.1088 15.88256320 261

Satellite not in orbit